Total_Precipitation_Accumulation
0.71 0.73 0.77 0.79 0.83 0.93 1.04 1.12 1.15 1.15 1.14 1.21 1.30 1.39 1.41 1.43 1.46 1.46 1.37 1.32 1.26 1.18 1.14 1.17 1.17 1.13 1.18 1.19 1.23 1.32 1.43 1.58 1.64 1.35 1.15 1.15 1.23 1.25 1.26 1.17 1.13 1.15 1.15
0.56 0.57 0.60 0.64 0.67 0.73 0.82 0.89 0.95 1.00 1.03 1.05 1.05 1.06 1.14 1.21 1.28 1.33 1.30 1.25 1.20 1.13 1.08 1.10 1.10 1.10 1.15 1.18 1.23 1.30 1.35 1.42 1.49 1.40 1.19 1.09 1.04 1.01 0.99 0.95 0.91 0.87 0.86
0.48 0.51 0.52 0.52 0.54 0.58 0.62 0.68 0.70 0.76 0.86 0.92 0.92 0.90 0.89 0.90 0.97 1.07 1.14 1.18 1.16 1.11 1.11 1.11 1.10 1.12 1.17 1.19 1.23 1.28 1.28 1.25 1.23 1.20 1.06 0.91 0.84 0.81 0.84 0.81 0.79 0.79 0.72
0.44 0.45 0.48 0.46 0.48 0.50 0.51 0.54 0.55 0.57 0.59 0.64 0.68 0.71 0.76 0.78 0.79 0.84 0.92 1.02 1.10 1.12 1.14 1.14 1.14 1.18 1.25 1.29 1.29 1.26 1.22 1.18 1.11 1.07 0.99 0.89 0.80 0.73 0.75 0.78 0.76 0.75 0.71
0.42 0.40 0.41 0.43 0.44 0.43 0.43 0.43 0.41 0.41 0.42 0.45 0.51 0.55 0.61 0.65 0.70 0.74 0.77 0.83 0.91 0.98 1.08 1.15 1.18 1.27 1.30 1.23 1.11 1.03 0.97 0.96 0.95 0.95 0.89 0.80 0.72 0.67 0.67 0.62 0.63 0.66 0.69
0.42 0.39 0.39 0.40 0.41 0.41 0.38 0.34 0.34 0.35 0.38 0.39 0.43 0.46 0.52 0.56 0.72 0.75 0.68 0.68 0.78 0.86 0.92 0.98 1.05 1.10 1.03 1.00 0.93 0.86 0.87 0.90 0.89 0.81 0.71 0.62 0.53 0.48 0.49 0.56 0.63 0.73 0.76
0.48 0.44 0.39 0.39 0.40 0.41 0.41 0.41 0.41 0.40 0.41 0.44 0.44 0.47 0.49 0.57 0.70 0.71 0.77 0.70 0.73 0.78 0.79 0.80 0.77 0.75 0.74 0.63 0.67 0.68 0.69 0.72 0.68 0.62 0.59 0.49 0.43 0.41 0.52 0.63 0.64 0.65 0.59
0.60 0.58 0.51 0.52 0.54 0.56 0.59 0.60 0.59 0.59 0.60 0.60 0.59 0.61 0.64 0.72 0.79 0.74 0.73 0.66 0.65 0.64 0.60 0.58 0.55 0.53 0.52 0.52 0.54 0.55 0.48 0.45 0.44 0.40 0.37 0.35 0.37 0.43 0.54 0.66 0.69 0.70 0.61
0.75 0.81 0.79 0.78 0.80 0.84 0.88 0.91 0.89 0.86 0.86 0.86 0.85 0.82 0.80 0.78 0.75 0.64 0.57 0.51 0.50 0.46 0.43 0.41 0.41 0.40 0.46 0.52 0.51 0.49 0.46 0.43 0.44 0.45 0.45 0.44 0.48 0.51 0.55 0.65 0.77 0.91 0.83
0.86 0.93 0.90 0.90 0.90 0.90 0.91 0.91 0.88 0.84 0.82 0.79 0.78 0.73 0.67 0.58 0.53 0.47 0.42 0.36 0.36 0.33 0.32 0.33 0.38 0.40 0.49 0.58 0.53 0.51 0.51 0.45 0.45 0.48 0.46 0.45 0.42 0.43 0.51 0.50 0.59 0.87 0.89
0.84 0.81 0.75 0.72 0.68 0.64 0.61 0.59 0.57 0.54 0.53 0.50 0.47 0.42 0.37 0.34 0.34 0.34 0.35 0.31 0.31 0.33 0.33 0.32 0.34 0.44 0.51 0.58 0.61 0.55 0.54 0.55 0.53 0.52 0.52 0.49 0.48 0.47 0.47 0.43 0.46 0.68 0.90
0.57 0.50 0.43 0.41 0.40 0.39 0.39 0.36 0.32 0.31 0.30 0.29 0.26 0.25 0.23 0.23 0.26 0.28 0.33 0.35 0.36 0.34 0.32 0.29 0.32 0.44 0.52 0.55 0.56 0.57 0.63 0.65 0.58 0.57 0.57 0.54 0.50 0.48 0.46 0.44 0.44 0.48 0.56
0.28 0.24 0.20 0.19 0.20 0.22 0.23 0.23 0.19 0.18 0.19 0.20 0.19 0.20 0.20 0.20 0.23 0.28 0.31 0.34 0.38 0.37 0.33 0.37 0.43 0.48 0.50 0.48 0.50 0.54 0.58 0.56 0.56 0.58 0.53 0.46 0.42 0.42 0.45 0.50 0.53 0.54 0.53
0.20 0.18 0.16 0.15 0.15 0.17 0.19 0.20 0.21 0.20 0.20 0.22 0.23 0.23 0.22 0.20 0.21 0.24 0.28 0.33 0.38 0.39 0.38 0.40 0.44 0.48 0.50 0.49 0.49 0.50 0.49 0.50 0.54 0.54 0.49 0.44 0.44 0.47 0.51 0.53 0.59 0.62 0.67
0.20 0.20 0.20 0.18 0.17 0.19 0.21 0.23 0.26 0.25 0.27 0.31 0.31 0.31 0.32 0.29 0.26 0.36 0.42 0.42 0.44 0.47 0.52 0.52 0.50 0.48 0.49 0.49 0.47 0.46 0.47 0.50 0.54 0.53 0.55 0.55 0.54 0.54 0.53 0.52 0.61 0.69 0.74
0.24 0.24 0.25 0.26 0.24 0.25 0.25 0.27 0.31 0.33 0.35 0.36 0.35 0.37 0.37 0.37 0.39 0.46 0.49 0.50 0.53 0.62 0.68 0.61 0.50 0.46 0.45 0.45 0.46 0.48 0.48 0.50 0.52 0.58 0.64 0.66 0.67 0.67 0.65 0.61 0.66 0.75 0.74
0.31 0.32 0.33 0.34 0.33 0.33 0.34 0.34 0.35 0.37 0.41 0.40 0.37 0.37 0.39 0.42 0.46 0.49 0.52 0.56 0.59 0.65 0.64 0.51 0.42 0.40 0.41 0.42 0.46 0.50 0.51 0.50 0.57 0.68 0.73 0.73 0.77 0.78 0.77 0.75 0.73 0.78 0.76
0.29 0.31 0.34 0.34 0.35 0.36 0.37 0.38 0.39 0.40 0.40 0.38 0.36 0.40 0.43 0.46 0.49 0.52 0.58 0.65 0.65 0.58 0.50 0.44 0.42 0.42 0.45 0.48 0.51 0.54 0.57 0.58 0.64 0.70 0.73 0.75 0.82 0.90 0.90 0.83 0.80 0.82 0.85
0.29 0.31 0.35 0.37 0.38 0.39 0.40 0.41 0.41 0.41 0.40 0.38 0.37 0.42 0.50 0.56 0.59 0.60 0.63 0.62 0.55 0.47 0.42 0.42 0.44 0.48 0.52 0.56 0.59 0.61 0.65 0.67 0.67 0.72 0.74 0.74 0.81 0.96 0.93 0.79 0.81 0.84 0.92
0.32 0.39 0.44 0.44 0.43 0.43 0.44 0.47 0.46 0.45 0.44 0.43 0.43 0.47 0.59 0.70 0.66 0.59 0.56 0.52 0.50 0.46 0.44 0.47 0.49 0.54 0.60 0.63 0.66 0.69 0.72 0.70 0.71 0.74 0.74 0.75 0.81 0.93 0.94 0.85 0.85 0.91 0.87
0.36 0.40 0.49 0.48 0.45 0.46 0.49 0.52 0.52 0.53 0.51 0.48 0.46 0.52 0.74 0.81 0.69 0.59 0.55 0.53 0.54 0.55 0.56 0.58 0.58 0.60 0.64 0.68 0.70 0.72 0.73 0.69 0.68 0.73 0.76 0.78 0.85 0.91 0.86 0.88 0.88 0.90 0.96
0.40 0.41 0.45 0.47 0.48 0.51 0.56 0.58 0.59 0.57 0.52 0.50 0.48 0.53 0.69 0.68 0.61 0.59 0.57 0.54 0.54 0.57 0.62 0.69 0.67 0.62 0.67 0.76 0.82 0.83 0.77 0.67 0.65 0.73 0.79 0.80 0.85 0.88 0.89 0.95 0.97 1.03 1.07
0.44 0.46 0.46 0.46 0.48 0.54 0.56 0.53 0.54 0.54 0.52 0.50 0.51 0.52 0.55 0.56 0.54 0.54 0.55 0.55 0.57 0.59 0.62 0.67 0.68 0.61 0.60 0.70 0.80 0.93 0.94 0.77 0.71 0.84 1.01 1.01 0.99 1.01 1.08 1.12 1.05 1.03 0.95
0.43 0.46 0.47 0.47 0.48 0.50 0.50 0.47 0.48 0.50 0.52 0.53 0.52 0.51 0.51 0.51 0.51 0.52 0.54 0.57 0.60 0.60 0.61 0.65 0.65 0.61 0.60 0.67 0.72 0.76 0.82 0.91 1.10 1.23 1.37 1.57 1.46 1.27 1.23 1.16 1.02 0.95 0.95
0.43 0.46 0.48 0.49 0.50 0.51 0.51 0.50 0.49 0.49 0.51 0.53 0.53 0.52 0.50 0.50 0.51 0.50 0.52 0.55 0.57 0.59 0.57 0.58 0.61 0.63 0.63 0.65 0.67 0.69 0.77 0.92 1.21 1.59 1.75 1.68 1.43 1.22 1.20 1.15 1.02 0.97 0.97
0.44 0.47 0.50 0.51 0.51 0.51 0.52 0.52 0.51 0.51 0.53 0.53 0.54 0.54 0.54 0.53 0.52 0.53 0.53 0.55 0.56 0.55 0.54 0.54 0.55 0.59 0.63 0.65 0.63 0.67 0.78 0.88 0.98 1.15 1.49 1.58 1.39 1.19 1.19 1.25 1.12 1.06 1.05